Das Wetter in  D-61279 Heinzenberg / Taunus





Wetter Minimum- & Maximum-Werte im November 2010

Standort: Heinzenberg / Taunus - Höhe 297 m         8° 24' 1" Ost 50° 21' 51" Nord
(   3-stündige Aktualisierung    letzte Aktualisierung um 20:46 am 30.11.2010  )


Messgrösse

Minimum

Maximum

Durchschnitt

Temperatur West /
Luftfeuchte West
Anklicken für Monats-Diagramm

-5,0 °C

02:01
27.11.2010

61 %

14:10
14.11.2010

17,4 °C

14:05
14.11.2010

99 %

02:27
07.11.2010

Temp

5,5 °C

Feuchte

89 %

Temperatur Ost /
Luftfeuchte Ost
Anklicken für Monats-Diagramm

-5,0 °C

02:06
27.11.2010

--

--
--

16,8 °C

14:05
14.11.2010

--

--
--

5,3 °C

--

Luftdruck Anklicken für Monats-Diagramm

978,2 hPa

04:39
09.11.2010

1023,9 hPa

07:40
05.11.2010

1007,1 hPa

Taupunkt

-6,1 °C

23:55
30.11.2010

12,5 °C

08:04
04.11.2010

3,8 °C

Windchill
( gefühlte Temperatur )

-14,6 °C

05:08
29.11.2010

14,7 °C

15:41
01.11.2010

2,2 °C

Windgeschwindigkeit /
Windrichtung
Anklicken für Monats-Diagramm

---

60,9 km/h / W

14:08
12.11.2010

11,6 km/h
W-SW

Helligkeit /
Sonnenschein
Anklicken für Monats-Diagramm
Anklicken für Monats-Diagramm

Sonnenschein:

24:10 Stunden

Max: 5:20 Std am
01.11.2010

61,0 klux

11:26
10.11.2010

8,1 klux

Solarstrahlung Anklicken für Monats-Diagramm

---

417 W/m²

11:26
10.11.2010

61 W/m²

Regenmenge
    November 2010
Anklicken für Monats-Diagramm

Insgesamt 42,1 l/m²

in 79:42 Stunden
an 24 Tagen

12,3 l/m²

21:18
12.11.2010

Gesamtmenge

42,1 l/m²

Regen-Tage
    November 2010
Anklicken für Monats-Diagramm

>   0 mm/Tag

>   2 mm/Tag

>   5 mm/Tag

> 10 mm/Tag

> 20 mm/Tag

24 Tage     
8 Tage     
2 Tage     
  1 Tag     
0 Tage     

Eisige Tage November 2010 / 2009

Tmin ≤ -10°C     

0 Tage

/

0 Tage

Eistage November 2010 / 2009

Tmax <     0°C     

3 Tage

/

0 Tage

Frosttage November 2010 / 2009

Tmin ≤     0°C     

6 Tage

/

  1 Tag

Kalte Tage November 2010 / 2009

Tmax <   10°C     

19 Tage

/

6 Tage

Warme Tage November 2010 / 2009

Tmax ≥   20°C     

0 Tage

/

0 Tage

Sommertage November 2010 / 2009

Tmax ≥   25°C     

0 Tage

/

0 Tage

Heisse Tage November 2010 / 2009

Tmax ≥   30°C     

0 Tage

/

0 Tage


Monatsdiagramm November 2010

Die Kurven zeigen den Durchschnittswert des jeweiligen Tages an


Wetter-Monatsübersicht November 2010
Datum
  Temperatur
   Luftdruck
   Wind
  Regen
   Luftfeuchte
   Helligkeit

Sonnen-
schein

Ø
Temp.

Min.
Temp.

Max.
Temp.

Ø
Luftdruck

Min.
Luftdruck

Max.
Luftdruck

Ø-Geschw.
Haupt-Richtg.

Max.
Wind

Menge /
Dauer

Ø
Feuchte

Min.
Feuchte

Max.
Feuchte

Ø
Helligkeit

Max.
Helligkeit

1.
November
8,2 °C3,4 °C
07:51
15,6 °C
15:26
1009,5 hPa1004,9 hPa
01:41
1015,2 hPa
23:42
5,9 km/h
W
19,8 km/h
16:31  
---
90 %67 %
15:26
98 %
09:26
22,66 klux58,60 klux
12:41
5:20 Std 
2.
November
8,8 °C6,3 °C
01:12
11,6 °C
15:27
1015,8 hPa1014,7 hPa
16:47
1017,0 hPa
10:12
11,1 km/h
W-SW
27,0 km/h
14:17  
---
87 %75 %
13:22
97 %
02:27
9,8 klux31,1 klux
13:07
10 Min 
3.
November
11,2 °C9,6 °C
02:28
12,8 °C
23:59
1016,0 hPa1013,7 hPa
07:28
1019,8 hPa
21:38
18,9 km/h
W-SW
37,9 km/h
15:43  
---
40 Minuten
87 %82 %
14:23
90 %
12:08
4,2 klux20,7 klux
12:08
--- 
4.
November
14,8 °C12,8 °C
00:04
16,5 °C
14:39
1021,0 hPa1018,4 hPa
05:19
1023,7 hPa
23:40
32,7 km/h
W-SW
53,2 km/h
08:39  
---
10 Minuten
79 %69 %
15:29
88 %
07:19
8,3 klux35,7 klux
09:59
30 Min 
5.
November
12,9 °C11,9 °C
17:25
14,0 °C
12:50
1022,7 hPa1019,6 hPa
23:16
1023,9 hPa
07:40
28,3 km/h
W-SW
45,1 km/h
09:30  
---
25 Minuten
77 %70 %
09:50
87 %
17:10
8,9 klux38,7 klux
09:40
40 Min 
6.
November
9,7 °C6,6 °C
23:37
13,0 °C
02:21
1014,6 hPa1011,1 hPa
22:47
1019,6 hPa
00:01
16,4 km/h
W
53,3 km/h
08:31  
6,1 l/m²
6:20 Stunden
90 %74 %
08:26
98 %
22:42
4,9 klux18,4 klux
13:11
--- 
7.
November
6,1 °C4,2 °C
23:23
7,8 °C
12:37
1003,8 hPa997,9 hPa
23:58
1011,1 hPa
00:02
1,7 km/h
NO
19,3 km/h
16:57  
0,2 l/m²
55 Minuten
96 %90 %
20:12
99 %
02:27
3,7 klux15,7 klux
12:22
--- 
8.
November
4,5 °C3,0 °C
19:43
7,2 °C
15:08
986,7 hPa978,2 hPa
23:34
998,0 hPa
00:53
5,8 km/h
SO
20,3 km/h
10:23  
1,2 l/m²
4:50 Stunden
92 %80 %
15:18
98 %
07:43
9,7 klux43,7 klux
14:38
1:15 Std 
9.
November
6,0 °C3,9 °C
00:34
8,6 °C
13:29
980,1 hPa978,2 hPa
04:39
983,2 hPa
23:01
7,6 km/h
O-SO
23,0 km/h
13:59  
2,6 l/m²
4:42 Stunden
93 %82 %
13:54
98 %
22:19
7,0 klux32,1 klux
12:39
5 Min 
10.
November
6,6 °C3,6 °C
23:27
9,5 °C
11:21
990,7 hPa983,1 hPa
01:51
1005,2 hPa
23:47
12,9 km/h
W-SW
34,9 km/h
16:26  
3,5 l/m²
5:25 Stunden
94 %81 %
12:31
99 %
00:21
9,5 klux61,0 klux
11:26
35 Min 
11.
November
4,7 °C3,5 °C
00:47
7,6 °C
23:53
1004,1 hPa990,3 hPa
23:28
1011,5 hPa
09:12
25,7 km/h
W-SW
55,0 km/h
22:17  
4,3 l/m²
5:15 Stunden
89 %73 %
14:32
97 %
00:32
13,4 klux51,1 klux
10:12
2:10 Std 
12.
November
9,7 °C7,6 °C
00:03
12,4 °C
23:54
996,7 hPa991,2 hPa
00:43
999,3 hPa
17:53
34,9 km/h
W
60,9 km/h
14:08  
12,3 l/m²
6:05 Stunden
83 %67 %
12:58
99 %
22:18
15,9 klux53,1 klux
11:43
2:40 Std 
13.
November
12,9 °C12,0 °C
19:44
14,0 °C
08:14
999,0 hPa996,9 hPa
00:19
1000,1 hPa
19:44
35,2 km/h
W-SW
55,1 km/h
06:39  
2,3 l/m²
5:05 Stunden
90 %80 %
23:50
96 %
02:24
2,4 klux9,9 klux
09:34
--- 
14.
November
14,0 °C12,4 °C
06:25
17,4 °C
14:05
1000,9 hPa998,9 hPa
07:50
1006,2 hPa
23:56
27,7 km/h
W-SW
47,3 km/h
01:45  
---
10 Minuten
74 %61 %
14:10
85 %
02:55
20,8 klux46,8 klux
11:25
5:20 Std 
15.
November
8,7 °C5,9 °C
23:32
12,3 °C
00:01
1013,1 hPa1006,2 hPa
00:01
1018,4 hPa
23:32
4,3 km/h
W-SW
33,7 km/h
00:21  
0,9 l/m²
4:05 Stunden
84 %72 %
00:01
91 %
16:56
4,2 klux9,5 klux
11:56
--- 
16.
November
5,9 °C4,3 °C
08:12
7,2 °C
12:22
1020,2 hPa1018,4 hPa
00:02
1021,7 hPa
09:07
4,0 km/h
N-NO
18,9 km/h
12:52  
---
84 %78 %
12:37
90 %
08:52
5,4 klux15,9 klux
10:17
--- 
17.
November
4,4 °C3,6 °C
21:33
5,5 °C
00:03
1013,1 hPa1009,3 hPa
18:13
1019,5 hPa
00:23
3,4 km/h
NO
16,3 km/h
04:53  
0,2 l/m²
1:05 Stunden
86 %81 %
00:58
96 %
22:18
4,3 klux11,6 klux
13:33
--- 
18.
November
4,7 °C3,8 °C
00:03
6,6 °C
13:43
1010,4 hPa1008,3 hPa
03:28
1013,4 hPa
22:49
2,4 km/h
W-SW
15,8 km/h
14:03  
2,0 l/m²
6:31 Stunden
94 %85 %
14:33
99 %
08:03
7,7 klux45,7 klux
13:38
15 Min 
19.
November
5,8 °C3,5 °C
23:39
10,0 °C
13:59
1015,9 hPa1013,4 hPa
00:04
1018,6 hPa
20:44
5,0 km/h
W-SW
22,2 km/h
12:59  
0,5 l/m²
1:19 Stunden
91 %72 %
13:54
97 %
01:14
17,4 klux54,0 klux
11:34
3:15 Std 
20.
November
5,1 °C3,5 °C
00:34
7,8 °C
14:59
1015,6 hPa1012,4 hPa
23:45
1017,7 hPa
00:34
4,1 km/h
O-SO
18,1 km/h
12:54  
---
94 %86 %
15:24
99 %
06:39
7,3 klux16,6 klux
11:39
--- 
21.
November
3,2 °C2,5 °C
08:20
4,3 °C
00:00
1009,3 hPa1006,4 hPa
23:21
1012,4 hPa
02:00
5,3 km/h
O-SO
18,6 km/h
03:50  
---
88 %84 %
14:00
91 %
07:00
5,5 klux14,5 klux
10:55
--- 
22.
November
3,1 °C2,4 °C
18:46
4,1 °C
15:21
1002,6 hPa1001,0 hPa
15:21
1006,4 hPa
00:01
6,4 km/h
NO
23,6 km/h
04:06  
2,3 l/m²
8:20 Stunden
94 %90 %
01:51
99 %
23:12
1,7 klux4,6 klux
14:51
--- 
23.
November
2,6 °C1,7 °C
08:07
3,9 °C
14:27
1004,2 hPa1002,2 hPa
01:07
1005,5 hPa
20:52
15,9 km/h
W
35,8 km/h
19:32  
---
2:45 Stunden
92 %83 %
05:57
99 %
00:02
5,93 klux30,70 klux
14:22
5 Min 
24.
November
2,2 °C0,6 °C
23:09
3,6 °C
12:33
1006,4 hPa1005,4 hPa
02:18
1007,7 hPa
23:09
14,6 km/h
W
33,4 km/h
13:08  
1,1 l/m²
3:10 Stunden
95 %88 %
02:48
99 %
20:58
4,2 klux15,0 klux
13:53
--- 
25.
November
0,5 °C-2,2 °C
22:55
2,4 °C
13:14
1004,2 hPa1001,7 hPa
20:44
1007,7 hPa
00:04
3,7 km/h
W-SW
21,8 km/h
05:29  
0,2 l/m²
1:35 Stunden
95 %88 %
14:44
99 %
00:04
7,2 klux21,3 klux
11:09
--- 
26.
November
-1,4 °C-3,9 °C
23:56
1,6 °C
13:20
1004,7 hPa1002,9 hPa
00:10
1007,3 hPa
23:56
0,5 km/h
NW
6,6 km/h
13:25  
---
1:35 Stunden
97 %91 %
15:30
99 %
00:00
8,4 klux34,9 klux
13:15
45 Min 
27.
November
-2,3 °C-5,0 °C
02:01
0,2 °C
12:41
1006,5 hPa1005,7 hPa
12:41
1007,4 hPa
02:01
2,8 km/h
O-SO
16,6 km/h
18:31  
---
20 Minuten
92 %84 %
14:11
97 %
00:26
10,4 klux28,1 klux
10:41
1:05 Std 
28.
November
-2,0 °C-2,7 °C
07:17
-0,7 °C
15:02
1006,2 hPa1005,0 hPa
22:17
1007,1 hPa
02:37
1,5 km/h
O-NO
16,1 km/h
23:58  
---
91 %89 %
00:02
93 %
20:12
3,3 klux6,8 klux
09:42
--- 
29.
November
-2,6 °C-3,0 °C
01:03
-2,0 °C
14:03
1007,5 hPa1005,0 hPa
04:28
1012,3 hPa
23:39
3,8 km/h
NO
23,4 km/h
05:08  
2,6 l/m²
8:50 Stunden
94 %90 %
05:08
98 %
18:08
2,70 klux6,55 klux
13:13
--- 
30.
November
-3,1 °C-4,6 °C
23:55
-2,2 °C
13:19
1012,8 hPa1009,4 hPa
23:45
1014,5 hPa
07:19
4,3 km/h
NO
19,0 km/h
21:39  
0,2 l/m²
5 Minuten
93 %87 %
13:54
98 %
01:19
4,70 klux12,10 klux
11:24
--- 



November
2010

Temperatur

  

Luftdruck

  

Wind

  

Regen

  

Luftfeuchte

  

Helligkeit

Sonnen-
schein

Ø

Min

Max

Ø

Min

Max

Ø

Max

Max

Ø

Min

Max

Ø

Max

Max

5,5 °C

-5,0 °C

02:01 Uhr
27.11.2010

17,4 °C

14:05 Uhr
14.11.2010

1007,1 hPa

978,2 hPa

04:39 Uhr
09.11.2010

1023,9 hPa

07:40 Uhr
05.11.2010

11,6 km/h

W-SW

60,9 km/h

14:08 Uhr
12.11.2010

12,3 l/m²

6:05 Stunden
12.11.2010

89 %

61 %

14:10 Uhr
14.11.2010

99 %

02:27 Uhr
07.11.2010

8,1 klux

61,00 klux

11:26 Uhr
10.11.2010

5:20 Std

am
01.11.2010

Gesamt

Gesamt

42,1 l/m²

24 Tage
79:42 h

24:10 Std


Wetter-Diagramme November 2010     Heinzenberg / Taunus   
TemperaturLuftfeuchte
SolarstrahlungLuftdruck
HelligkeitSonnenschein
RegenmengeRegendauer
Wind-GeschwindigkeitWind-Richtung